Wind_Speed
25 25 26 25 26 26 26 27 27 28 28 28 28 29 28 29 29 29 28 28 28 28 28 28 28 27 27 27 26 26 25 24 24 24 24 24 24 23 23 23 22 22 22
26 26 26 27 27 26 27 28 28 29 29 29 29 29 29 30 30 29 29 29 29 29 29 29 29 29 29 28 28 28 27 27 26 26 25 25 25 25 24 24 24 24 23
27 27 27 28 28 28 28 28 29 29 30 31 31 31 30 30 30 29 30 30 30 30 29 29 30 30 30 29 28 29 29 29 28 28 27 27 27 27 26 26 25 25 24
28 28 28 28 29 29 29 29 29 30 31 31 31 32 31 31 31 30 30 30 31 31 30 30 30 29 30 30 29 30 30 30 29 29 29 29 28 28 27 28 27 27 26
28 29 29 29 29 29 30 30 30 31 31 31 31 32 32 32 32 31 31 31 31 31 31 31 31 30 31 31 31 31 30 30 30 31 30 30 29 29 29 28 28 28 28
29 29 29 29 29 30 31 31 31 31 31 31 31 31 31 32 32 31 32 31 31 31 31 31 31 31 31 31 32 31 31 31 31 31 31 31 31 31 30 30 29 29 29
29 29 30 29 30 31 31 31 31 31 31 31 30 30 31 30 31 31 32 32 31 31 31 31 31 32 32 32 32 32 31 32 32 32 31 32 32 32 31 31 31 31 31
29 30 29 29 30 30 31 30 30 30 30 30 30 30 30 29 29 30 31 32 31 31 31 30 30 31 32 33 33 33 32 32 33 33 32 32 33 34 33 33 32 31 32
30 29 29 29 29 30 29 29 29 29 29 29 29 29 28 28 28 29 29 30 30 30 30 29 29 31 32 32 33 33 34 33 33 33 33 32 33 34 34 34 34 33 33
28 28 29 29 29 29 29 28 28 28 28 28 28 27 27 26 26 26 27 28 29 29 29 29 29 29 30 31 32 33 33 33 34 34 33 33 33 34 34 34 35 34 33
27 28 28 28 28 28 28 28 27 26 26 26 25 25 24 24 24 24 24 26 26 27 27 28 27 29 29 29 30 31 32 32 33 34 34 33 34 34 35 34 35 35 35
27 26 27 27 27 27 28 27 26 25 25 25 24 24 23 23 23 23 22 22 24 25 25 26 27 27 28 28 28 29 30 31 32 33 33 34 34 34 35 35 36 36 36
26 26 26 26 26 26 26 26 26 26 26 25 24 24 23 22 22 21 20 21 22 22 22 22 24 25 26 27 27 28 29 31 31 32 32 34 34 34 34 35 35 36 36
25 25 25 25 25 25 25 25 25 26 25 25 24 23 22 20 19 19 19 20 20 20 21 21 22 23 24 25 26 27 27 29 30 31 32 32 33 33 34 34 34 36 36
23 23 24 24 23 24 24 24 23 23 22 22 22 22 20 19 18 18 19 19 20 19 19 20 21 22 23 23 24 25 26 27 29 30 31 32 31 31 32 32 33 34 35
22 22 22 22 22 22 22 22 21 20 20 20 19 19 19 19 18 18 18 18 18 18 18 19 19 21 22 21 21 23 25 26 27 27 28 28 30 31 31 32 31 32 33
22 20 20 20 20 20 20 18 18 19 19 18 18 18 17 17 17 17 17 17 17 17 18 18 18 19 19 19 19 21 22 24 25 25 27 27 28 29 29 30 30 31 33
21 20 19 19 18 18 18 17 17 17 17 16 16 16 16 16 16 16 16 16 16 16 17 17 17 18 18 19 19 20 22 22 23 24 25 26 27 27 28 29 30 31 31
19 18 18 18 18 18 18 17 16 16 16 16 16 16 15 16 16 15 15 16 16 16 17 17 17 17 19 19 19 20 21 22 23 23 25 26 26 27 28 28 28 29 29
18 17 17 18 18 17 17 16 16 16 16 16 16 15 15 16 15 15 15 15 16 16 17 17 17 17 18 18 19 20 21 22 23 24 25 26 26 27 28 28 28 28 29
17 16 16 17 17 17 16 16 16 16 16 15 15 15 15 15 15 15 15 16 16 16 16 16 17 18 18 18 19 19 20 21 22 23 24 25 26 27 28 28 29 29 29
16 15 16 16 16 16 15 15 15 15 16 15 15 15 15 15 15 14 15 15 16 16 16 16 16 17 17 18 17 17 18 19 20 21 21 23 25 25 26 27 28 28 28
16 16 16 16 16 16 16 15 15 15 14 14 14 14 14 14 13 14 14 15 16 17 16 16 15 15 15 16 16 16 17 18 18 19 20 21 23 24 25 26 27 27 27
16 17 16 16 16 16 16 15 15 14 14 14 14 14 13 13 12 13 13 13 14 15 15 14 14 14 15 15 15 15 16 17 18 18 19 20 22 23 24 24 25 25 26
16 16 16 15 15 15 15 15 14 13 12 12 12 12 12 12 12 13 13 12 12 13 13 13 14 14 14 15 15 15 15 16 16 17 18 19 20 21 22 22 23 24 24
15 15 15 15 15 14 14 14 13 12 11 11 11 11 11 12 12 12 12 12 12 13 13 13 13 14 14 15 15 15 15 16 16 17 18 18 19 19 20 21 22 22 23
Wind_Direction
288 287 288 288 287 285 283 283 283 282 282 282 281 280 278 275 273 273 272 270 269 267 265 264 262 261 259 257 256 255 255 254 251 247 246 245 245 245 244 243 242 241 241
290 290 289 289 288 287 284 283 282 281 281 281 280 280 278 276 274 274 271 269 268 267 265 263 262 260 259 257 254 253 253 254 252 249 247 245 245 246 247 246 244 243 242
291 291 291 290 288 287 287 285 283 282 282 282 280 279 278 275 274 273 271 269 268 266 264 263 261 259 257 255 254 252 252 253 252 249 247 245 245 246 246 245 245 244 244
290 290 290 290 289 287 286 286 285 284 283 283 280 278 277 275 272 272 272 270 269 266 263 262 261 258 256 255 253 252 252 252 252 249 248 246 247 246 246 244 245 245 245
291 292 290 288 288 287 286 287 287 285 284 283 281 278 277 274 272 272 272 270 269 266 262 260 258 257 255 254 253 251 251 251 251 249 247 246 246 247 246 244 244 245 246
293 291 290 288 288 287 288 288 288 286 285 284 283 280 277 275 272 271 272 270 269 266 263 261 258 255 254 254 253 251 250 250 251 250 247 245 245 246 246 245 245 246 245
293 292 290 289 289 289 289 289 288 287 286 285 284 282 279 276 273 272 271 270 269 266 264 262 258 254 253 253 252 252 251 249 250 251 249 246 245 245 246 245 244 246 245
293 292 291 290 291 291 291 291 289 287 286 286 286 284 281 277 274 272 271 270 269 268 265 262 258 255 253 253 252 252 251 250 248 249 249 247 245 245 246 246 245 244 244
295 294 292 292 293 293 291 292 290 288 287 286 287 286 283 278 274 274 272 271 269 267 264 262 259 257 255 254 253 252 251 250 248 247 247 246 246 246 246 247 245 243 244
295 294 295 293 293 293 292 292 292 290 288 287 288 287 285 282 277 278 274 272 270 266 263 262 261 258 256 254 253 252 250 249 248 247 247 247 246 246 246 246 244 243 243
296 296 295 293 293 292 291 292 292 290 289 289 289 288 287 286 281 279 277 274 271 268 266 261 260 259 258 256 253 250 248 248 246 246 246 247 247 246 246 246 245 245 245
296 296 295 295 294 292 291 290 290 289 289 289 289 288 286 284 280 278 277 273 272 272 269 265 261 259 257 257 253 250 248 247 246 244 245 247 247 247 246 245 245 246 246
295 294 295 295 294 293 290 288 288 287 288 288 288 287 285 284 280 276 275 273 273 272 272 268 262 258 258 256 253 250 246 246 246 246 246 247 247 248 247 246 246 246 246
296 296 296 296 295 294 291 289 289 289 287 286 285 285 284 283 281 276 272 274 274 272 270 269 267 262 261 259 254 252 249 247 247 247 247 248 249 249 249 247 246 246 246
297 297 297 297 298 298 294 292 292 291 290 290 288 285 283 282 279 276 273 274 274 272 270 269 268 264 263 263 258 254 252 250 249 249 248 248 248 249 248 248 246 245 246
302 302 302 302 304 305 303 298 296 295 294 292 290 289 287 285 276 274 274 275 274 276 275 272 269 267 265 262 259 257 255 254 252 250 248 247 248 247 247 248 247 247 247
305 306 305 307 309 309 308 304 300 299 296 294 292 289 287 286 280 277 279 277 275 275 276 273 271 269 267 263 260 257 255 256 256 253 251 252 250 248 248 247 248 249 249
307 305 305 307 309 310 309 307 305 303 299 297 295 293 291 288 282 279 278 278 278 278 276 275 273 268 266 262 262 260 258 257 256 253 252 252 252 250 251 251 250 249 250
314 310 309 311 312 311 310 309 307 305 302 299 296 295 294 292 284 281 279 281 280 279 277 275 274 270 264 261 261 262 262 260 258 256 254 252 252 252 252 252 252 252 252
319 314 313 314 314 313 312 311 309 306 306 303 301 299 298 295 285 283 282 284 283 281 278 275 271 269 266 263 262 262 263 262 261 259 257 255 253 252 252 252 252 253 254
320 317 318 320 319 317 313 309 307 307 306 305 305 303 301 295 289 286 287 286 285 284 280 276 273 270 267 266 263 263 265 265 264 262 258 255 254 253 254 254 253 254 254
326 324 324 324 322 321 318 314 309 306 306 305 304 302 301 297 293 289 288 287 287 287 284 279 275 274 272 270 269 267 267 267 266 261 257 255 255 255 254 255 256 255 255
328 327 324 324 323 322 319 316 313 311 314 312 309 306 304 302 298 293 291 290 290 289 287 284 280 279 278 275 273 273 272 272 269 266 263 260 258 257 257 256 256 255 254
323 324 322 320 321 322 321 319 316 317 315 313 313 312 311 309 303 299 297 296 295 292 289 286 283 282 278 276 275 275 275 274 270 269 269 264 260 258 257 257 257 256 255
324 325 325 323 324 324 325 325 324 322 320 320 320 317 315 313 310 306 302 297 295 294 291 288 286 284 281 280 278 276 278 276 272 271 269 266 262 260 259 258 259 258 258
329 329 328 328 326 326 328 330 330 328 324 322 321 320 320 318 318 316 311 305 300 296 295 294 291 289 285 284 281 280 280 280 276 274 271 269 266 263 261 261 261 260 260
Height
5844 5842 5840 5838 5836 5835 5834 5832 5831 5830 5829 5827 5826 5825 5825 5824 5824 5823 5822 5822 5822 5822 5823 5823 5824 5825 5826 5827 5829 5830 5831 5832 5834 5835 5837 5839 5841 5842 5844 5846 5847 5849 5851
5838 5836 5835 5833 5831 5829 5828 5826 5825 5823 5822 5821 5820 5818 5818 5817 5816 5815 5815 5815 5815 5815 5816 5816 5817 5818 5819 5820 5822 5823 5825 5826 5828 5829 5831 5833 5835 5837 5839 5841 5842 5844 5845
5833 5831 5829 5826 5824 5823 5821 5820 5818 5816 5815 5814 5812 5811 5810 5809 5808 5808 5807 5807 5807 5808 5808 5809 5809 5810 5812 5813 5815 5817 5818 5820 5822 5823 5825 5827 5829 5831 5833 5835 5837 5839 5840
5826 5824 5822 5820 5818 5816 5814 5812 5811 5809 5807 5805 5804 5803 5802 5801 5800 5800 5799 5799 5799 5799 5800 5801 5802 5803 5804 5806 5807 5809 5811 5813 5814 5816 5818 5820 5822 5825 5827 5829 5831 5833 5835
5820 5818 5816 5813 5811 5809 5807 5805 5803 5801 5799 5797 5796 5795 5793 5792 5792 5791 5791 5790 5791 5791 5791 5792 5793 5794 5796 5798 5799 5801 5803 5805 5807 5809 5811 5813 5815 5818 5820 5822 5824 5826 5828
5813 5811 5808 5806 5804 5802 5800 5797 5795 5793 5791 5789 5787 5786 5785 5784 5783 5783 5782 5782 5782 5782 5783 5783 5784 5786 5788 5789 5791 5794 5796 5798 5799 5801 5803 5806 5808 5811 5813 5815 5817 5820 5822
5807 5804 5802 5799 5797 5794 5792 5789 5787 5785 5782 5781 5779 5778 5776 5775 5774 5774 5774 5773 5773 5774 5774 5775 5776 5777 5779 5781 5783 5785 5787 5789 5792 5794 5796 5798 5801 5803 5805 5808 5811 5813 5815
5800 5797 5794 5792 5789 5787 5784 5781 5779 5777 5774 5772 5771 5769 5768 5767 5765 5765 5765 5765 5765 5765 5765 5766 5767 5769 5771 5772 5774 5776 5778 5781 5783 5785 5788 5790 5793 5795 5798 5800 5803 5806 5808
5793 5790 5787 5785 5782 5779 5776 5773 5771 5768 5766 5764 5762 5761 5759 5758 5758 5758 5757 5757 5757 5757 5757 5757 5758 5760 5762 5763 5765 5767 5770 5772 5775 5777 5779 5782 5785 5787 5790 5793 5795 5798 5800
5786 5783 5780 5777 5774 5772 5769 5766 5763 5761 5759 5757 5755 5753 5752 5750 5750 5750 5750 5749 5749 5749 5749 5750 5750 5752 5753 5755 5757 5758 5761 5763 5766 5768 5771 5774 5777 5779 5782 5785 5787 5790 5793
5779 5776 5773 5770 5767 5764 5762 5759 5756 5754 5752 5750 5748 5746 5745 5744 5743 5743 5743 5742 5741 5741 5741 5742 5743 5744 5745 5747 5748 5750 5752 5755 5757 5760 5763 5765 5768 5771 5774 5776 5779 5782 5785
5772 5769 5766 5763 5760 5757 5755 5752 5750 5747 5745 5743 5741 5740 5739 5738 5737 5737 5736 5736 5735 5734 5734 5735 5736 5737 5738 5739 5740 5742 5744 5746 5748 5751 5754 5757 5760 5762 5765 5768 5771 5773 5776
5765 5762 5759 5756 5753 5750 5747 5745 5743 5741 5739 5737 5735 5734 5732 5731 5731 5730 5730 5730 5729 5728 5728 5728 5729 5729 5730 5732 5733 5734 5736 5738 5740 5743 5745 5749 5751 5754 5757 5759 5762 5765 5767
5758 5755 5752 5749 5746 5743 5741 5738 5736 5734 5732 5730 5729 5728 5726 5725 5725 5725 5725 5724 5724 5723 5723 5723 5722 5723 5724 5724 5726 5727 5729 5731 5733 5735 5737 5740 5743 5745 5748 5750 5753 5756 5759
5752 5749 5746 5743 5740 5737 5734 5732 5729 5727 5726 5724 5723 5722 5721 5720 5719 5719 5719 5719 5719 5718 5718 5717 5716 5717 5717 5718 5719 5720 5722 5723 5725 5727 5730 5732 5735 5737 5739 5742 5744 5747 5750
5745 5743 5740 5738 5735 5732 5728 5726 5724 5722 5721 5719 5718 5717 5716 5715 5714 5714 5714 5714 5713 5713 5712 5712 5711 5711 5712 5712 5713 5714 5715 5716 5718 5720 5722 5725 5727 5729 5732 5734 5737 5739 5742
5740 5738 5735 5733 5730 5727 5724 5721 5719 5718 5716 5715 5713 5712 5711 5710 5710 5710 5709 5709 5708 5708 5708 5707 5707 5706 5707 5707 5708 5709 5710 5711 5712 5714 5716 5718 5720 5722 5724 5727 5729 5732 5734
5735 5733 5731 5729 5726 5723 5720 5717 5716 5714 5712 5711 5709 5708 5707 5706 5705 5705 5705 5704 5704 5703 5703 5703 5702 5702 5702 5702 5703 5704 5704 5705 5707 5708 5710 5712 5714 5716 5718 5720 5722 5724 5726
5732 5729 5727 5725 5722 5719 5717 5714 5713 5711 5709 5707 5706 5704 5703 5702 5702 5701 5700 5700 5699 5699 5698 5698 5698 5698 5697 5698 5698 5699 5699 5700 5701 5703 5704 5706 5707 5709 5711 5713 5715 5717 5719
5729 5727 5724 5722 5719 5716 5714 5712 5710 5708 5706 5704 5703 5701 5700 5699 5698 5697 5696 5696 5695 5695 5694 5694 5694 5693 5693 5693 5693 5694 5695 5695 5696 5697 5698 5700 5701 5703 5704 5706 5708 5710 5711
5727 5724 5722 5719 5716 5713 5711 5709 5706 5705 5703 5701 5699 5698 5697 5695 5694 5693 5692 5692 5691 5690 5690 5689 5689 5689 5689 5688 5689 5689 5690 5690 5690 5691 5692 5693 5695 5696 5697 5699 5701 5702 5704
5725 5722 5720 5717 5714 5711 5708 5706 5703 5701 5700 5698 5696 5695 5694 5692 5691 5690 5689 5688 5687 5686 5686 5685 5684 5684 5684 5684 5684 5684 5684 5685 5685 5685 5685 5686 5688 5689 5690 5692 5693 5694 5696
5723 5720 5718 5715 5712 5709 5706 5703 5701 5699 5697 5695 5693 5692 5690 5689 5687 5686 5685 5684 5683 5682 5682 5681 5681 5680 5680 5680 5680 5680 5679 5679 5679 5679 5680 5680 5681 5682 5683 5684 5686 5687 5688
5721 5718 5715 5713 5710 5707 5704 5701 5699 5696 5694 5692 5691 5689 5687 5686 5684 5683 5682 5681 5679 5678 5678 5677 5677 5676 5676 5676 5676 5675 5675 5675 5674 5674 5674 5675 5675 5676 5677 5678 5678 5679 5680
5719 5716 5713 5710 5707 5704 5702 5699 5696 5694 5692 5690 5689 5687 5685 5684 5682 5680 5679 5678 5677 5675 5674 5673 5673 5673 5672 5672 5671 5671 5670 5670 5670 5669 5669 5669 5670 5670 5671 5671 5672 5673 5673
5717 5714 5711 5708 5705 5703 5700 5697 5695 5693 5691 5689 5687 5685 5683 5681 5680 5678 5676 5675 5674 5673 5672 5671 5670 5669 5668 5668 5667 5667 5666 5666 5665 5665 5664 5664 5664 5664 5665 5665 5665 5666 5667